Location: Hernandez
(10.3704°N, 67.2181°W)
Time: 05:50:15
(UTC+00:00)

SKYMED 3 - Pass Details

Date: 13 April 2024
Orbit: 565 x 585 km, 97.9° (Epoch: 25 May)

Event Time Altitude Azimuth Distance (km) Brightness Sun altitude
Rises 23:04:49 0° 10° (N) 2,769 7.9 -6.9°
Reaches altitude 10° 23:06:57 10° 10° (N) 1,876 7.1 -7.4°
Maximum altitude 23:11:02 84° 281° (W) 584 4.5 -8.4°
Drops below altitude 10° 23:15:07 10° 194° (SSW) 1,891 7.1 -9.4°
Sets 23:17:17 0° 193° (SSW) 2,793 7.9 -9.9°
